Time,TemperatureF,DewpointF,PressureIn,WindDirection,WindDirectionDegrees,WindSpeedMPH,WindSpeedGustMPH,Humidity,HourlyPrecipIn,Conditions,Clouds,dailyrainin,SoftwareType,DateUTC
2013-09-21 00:01:00,57.6,55.8,29.83,SSW,202,0.0,0.0,94,0.00,,,0.00,WUHU21623XXSP,2013-09-21 07:01:00,
2013-09-21 00:06:00,57.6,55.8,29.83,SSW,202,0.0,0.0,94,0.00,,,0.00,WUHU21623XXSP,2013-09-21 07:06:00,
2013-09-21 00:11:00,57.6,55.8,29.83,SSW,202,0.0,0.0,94,0.00,,,0.00,WUHU21623XXSP,2013-09-21 07:11:00,
2013-09-21 00:16:00,57.6,55.8,29.83,SSW,202,0.0,0.0,94,0.00,,,0.00,WUHU21623XXSP,2013-09-21 07:16:00,
2013-09-21 00:21:00,57.6,55.8,29.83,SSW,202,0.0,0.0,94,0.00,,,0.00,WUHU21623XXSP,2013-09-21 07:21:00,
2013-09-21 00:26:00,57.4,55.7,29.83,SSW,202,0.0,0.0,94,0.00,,,0.00,WUHU21623XXSP,2013-09-21 07:26:00,
2013-09-21 00:31:00,57.4,55.7,29.83,SSW,202,0.0,0.0,94,0.00,,,0.00,WUHU21623XXSP,2013-09-21 07:31:00,
2013-09-21 00:36:00,57.4,55.7,29.83,SSW,202,0.0,0.0,94,0.00,,,0.00,WUHU21623XXSP,2013-09-21 07:36:00,
2013-09-21 00:41:00,57.4,55.7,29.83,SSW,202,0.0,0.0,94,0.00,,,0.00,WUHU21623XXSP,2013-09-21 07:41:00,
2013-09-21 00:46:00,57.4,55.7,29.83,SSW,202,0.0,0.0,94,0.00,,,0.00,WUHU21623XXSP,2013-09-21 07:46:00,
2013-09-21 00:51:00,57.4,55.7,29.83,SSW,202,0.0,0.0,94,0.00,,,0.00,WUHU21623XXSP,2013-09-21 07:51:00,
2013-09-21 00:56:00,57.2,55.7,29.83,SSW,202,0.0,0.0,94,0.00,,,0.00,WUHU21623XXSP,2013-09-21 07:56:00,
2013-09-21 01:01:00,57.2,55.5,29.83,SSW,202,0.0,0.0,94,0.00,,,0.00,WUHU21623XXSP,2013-09-21 08:01:00,
2013-09-21 01:06:00,57.0,55.3,29.83,SSW,202,0.0,0.0,94,0.00,,,0.00,WUHU21623XXSP,2013-09-21 08:06:00,
2013-09-21 01:11:00,57.0,55.3,29.84,SSW,202,0.0,0.0,94,0.00,,,0.00,WUHU21623XXSP,2013-09-21 08:11:00,
2013-09-21 01:16:00,57.0,55.3,29.84,SSW,202,0.0,0.0,94,0.00,,,0.00,WUHU21623XXSP,2013-09-21 08:16:00,
2013-09-21 01:21:00,57.0,55.3,29.84,SSW,202,0.0,0.0,94,0.00,,,0.00,WUHU21623XXSP,2013-09-21 08:21:00,
2013-09-21 01:26:00,56.8,55.3,29.84,SSW,202,0.0,0.0,94,0.00,,,0.00,WUHU21623XXSP,2013-09-21 08:26:00,
2013-09-21 01:31:00,56.8,55.1,29.83,SSW,202,0.0,0.0,94,0.00,,,0.00,WUHU21623XXSP,2013-09-21 08:31:00,
2013-09-21 01:36:00,57.0,55.4,29.84,SSW,202,0.0,0.0,94,0.00,,,0.00,WUHU21623XXSP,2013-09-21 08:36:00,
2013-09-21 01:41:00,56.8,55.1,29.84,SSW,202,0.0,0.0,95,0.00,,,0.00,WUHU21623XXSP,2013-09-21 08:41:00,
2013-09-21 01:46:00,56.8,55.4,29.83,SSW,202,0.0,0.0,95,0.00,,,0.00,WUHU21623XXSP,2013-09-21 08:46:00,
2013-09-21 01:51:00,56.8,55.4,29.83,SSW,202,0.0,0.0,95,0.00,,,0.00,WUHU21623XXSP,2013-09-21 08:51:00,
2013-09-21 01:56:00,56.8,55.1,29.83,SSW,202,0.0,0.0,94,0.00,,,0.00,WUHU21623XXSP,2013-09-21 08:56:00,
2013-09-21 02:01:00,56.8,55.1,29.83,SSW,202,0.0,0.0,95,0.00,,,0.00,WUHU21623XXSP,2013-09-21 09:01:00,
2013-09-21 02:06:00,56.8,55.6,29.83,SSW,202,0.0,0.0,95,0.00,,,0.00,WUHU21623XXSP,2013-09-21 09:06:00,
2013-09-21 02:11:00,56.8,55.4,29.83,SSW,202,0.0,0.0,95,0.00,,,0.00,WUHU21623XXSP,2013-09-21 09:11:00,
2013-09-21 02:16:00,56.8,55.4,29.83,SSW,202,0.0,0.0,95,0.00,,,0.00,WUHU21623XXSP,2013-09-21 09:16:00,
2013-09-21 02:21:00,56.8,55.4,29.83,SSW,202,0.0,0.0,95,0.00,,,0.00,WUHU21623XXSP,2013-09-21 09:21:00,
2013-09-21 02:26:00,56.8,55.4,29.83,SSW,202,0.0,0.0,95,0.00,,,0.00,WUHU21623XXSP,2013-09-21 09:26:00,
2013-09-21 02:31:00,56.8,55.1,29.83,SSW,202,0.0,0.0,94,0.00,,,0.00,WUHU21623XXSP,2013-09-21 09:31:00,
2013-09-21 02:36:00,56.8,55.1,29.83,SSW,202,0.0,0.0,94,0.00,,,0.00,WUHU21623XXSP,2013-09-21 09:36:00,
2013-09-21 02:41:00,56.8,55.1,29.83,SSW,202,0.0,0.0,94,0.00,,,0.00,WUHU21623XXSP,2013-09-21 09:41:00,
2013-09-21 02:46:00,56.5,54.8,29.83,SSW,202,0.0,0.0,94,0.00,,,0.00,WUHU21623XXSP,2013-09-21 09:46:00,
2013-09-21 02:51:00,56.5,54.8,29.83,SSW,202,0.0,0.0,94,0.00,,,0.00,WUHU21623XXSP,2013-09-21 09:51:00,
2013-09-21 02:56:00,56.5,54.8,29.83,SSW,202,0.0,0.0,94,0.00,,,0.00,WUHU21623XXSP,2013-09-21 09:56:00,
2013-09-21 03:01:00,56.5,54.8,29.83,SSW,202,0.0,0.0,94,0.00,,,0.00,WUHU21623XXSP,2013-09-21 10:01:00,
2013-09-21 03:06:00,56.3,54.8,29.82,SSW,202,0.0,0.0,94,0.00,,,0.00,WUHU21623XXSP,2013-09-21 10:06:00,
2013-09-21 03:11:00,56.3,54.6,29.82,SSW,202,0.0,0.0,94,0.00,,,0.00,WUHU21623XXSP,2013-09-21 10:11:00,
2013-09-21 03:16:00,56.1,54.6,29.82,SSW,202,0.0,0.0,94,0.00,,,0.00,WUHU21623XXSP,2013-09-21 10:16:00,
2013-09-21 03:21:00,56.1,54.4,29.82,SSW,202,0.0,0.0,94,0.00,,,0.00,WUHU21623XXSP,2013-09-21 10:21:00,
2013-09-21 03:26:00,56.1,54.7,29.83,SSW,202,0.0,0.0,95,0.00,,,0.00,WUHU21623XXSP,2013-09-21 10:26:00,
2013-09-21 03:31:00,56.1,54.4,29.83,SSW,202,0.0,0.0,94,0.00,,,0.00,WUHU21623XXSP,2013-09-21 10:31:00,
2013-09-21 03:36:00,55.9,54.5,29.83,SSW,202,0.0,0.0,95,0.00,,,0.00,WUHU21623XXSP,2013-09-21 10:36:00,
2013-09-21 03:41:00,55.9,54.5,29.83,SSW,202,0.0,0.0,95,0.00,,,0.00,WUHU21623XXSP,2013-09-21 10:41:00,
2013-09-21 03:46:00,55.9,54.5,29.83,SSW,202,0.0,0.0,95,0.00,,,0.00,WUHU21623XXSP,2013-09-21 10:46:00,
2013-09-21 03:51:00,56.1,54.7,29.83,SSW,202,0.0,0.0,95,0.00,,,0.00,WUHU21623XXSP,2013-09-21 10:51:00,
2013-09-21 03:56:00,56.1,54.7,29.83,SSW,202,0.0,0.0,95,0.00,,,0.00,WUHU21623XXSP,2013-09-21 10:56:00,
2013-09-21 04:01:00,56.1,54.7,29.83,SSW,202,0.0,0.0,95,0.00,,,0.00,WUHU21623XXSP,2013-09-21 11:01:00,
2013-09-21 04:06:00,56.1,54.7,29.83,SSW,202,0.0,0.0,95,0.00,,,0.00,WUHU21623XXSP,2013-09-21 11:06:00,
2013-09-21 04:11:00,56.1,54.4,29.83,SSW,202,0.0,0.0,95,0.00,,,0.00,WUHU21623XXSP,2013-09-21 11:11:00,
2013-09-21 04:16:00,56.1,54.7,29.83,SSW,202,0.0,0.0,95,0.00,,,0.00,WUHU21623XXSP,2013-09-21 11:16:00,
2013-09-21 04:21:00,56.1,54.7,29.82,SSW,202,0.0,0.0,95,0.00,,,0.00,WUHU21623XXSP,2013-09-21 11:21:00,
2013-09-21 04:26:00,56.1,54.7,29.82,SSW,202,0.0,0.0,95,0.00,,,0.00,WUHU21623XXSP,2013-09-21 11:26:00,
2013-09-21 04:31:00,55.9,54.7,29.82,SSW,202,0.0,0.0,95,0.00,,,0.00,WUHU21623XXSP,2013-09-21 11:31:00,
2013-09-21 04:36:00,56.1,54.7,29.82,SSW,202,0.0,0.0,95,0.00,,,0.00,WUHU21623XXSP,2013-09-21 11:36:00,
2013-09-21 04:41:00,56.1,54.7,29.82,SSW,202,0.0,0.0,95,0.00,,,0.00,WUHU21623XXSP,2013-09-21 11:41:00,
2013-09-21 04:46:00,56.1,54.7,29.81,SSW,202,0.0,0.0,95,0.00,,,0.00,WUHU21623XXSP,2013-09-21 11:46:00,
2013-09-21 04:51:00,56.1,54.7,29.81,SSW,202,0.0,0.0,95,0.00,,,0.00,WUHU21623XXSP,2013-09-21 11:51:00,
2013-09-21 04:56:00,55.9,54.5,29.82,SSW,202,0.0,0.0,95,0.00,,,0.00,WUHU21623XXSP,2013-09-21 11:56:00,
2013-09-21 05:01:00,55.9,54.5,29.82,SSW,202,0.0,0.0,95,0.00,,,0.00,WUHU21623XXSP,2013-09-21 12:01:00,
2013-09-21 05:06:00,55.9,54.5,29.82,SSW,202,0.0,0.0,95,0.00,,,0.00,WUHU21623XXSP,2013-09-21 12:06:00,
2013-09-21 05:11:00,55.8,54.3,29.82,SSW,202,0.0,0.0,95,0.00,,,0.00,WUHU21623XXSP,2013-09-21 12:11:00,
2013-09-21 05:16:00,55.6,54.3,29.82,SSW,202,0.0,0.0,95,0.00,,,0.00,WUHU21623XXSP,2013-09-21 12:16:00,
2013-09-21 05:21:00,55.4,54.1,29.82,SSW,202,0.0,0.0,95,0.00,,,0.00,WUHU21623XXSP,2013-09-21 12:21:00,
2013-09-21 05:26:00,55.2,53.8,29.82,SSW,202,0.0,0.0,95,0.00,,,0.00,WUHU21623XXSP,2013-09-21 12:26:00,
2013-09-21 05:31:00,55.2,53.8,29.82,SSW,202,0.0,0.0,95,0.00,,,0.00,WUHU21623XXSP,2013-09-21 12:31:00,
2013-09-21 05:36:00,55.2,53.8,29.82,SSW,202,0.0,0.0,95,0.00,,,0.00,WUHU21623XXSP,2013-09-21 12:36:00,
2013-09-21 05:41:00,55.2,53.8,29.82,SSW,202,0.0,0.0,95,0.00,,,0.00,WUHU21623XXSP,2013-09-21 12:41:00,
2013-09-21 05:46:00,55.2,53.8,29.82,SSW,202,0.0,0.0,95,0.00,,,0.00,WUHU21623XXSP,2013-09-21 12:46:00,
2013-09-21 05:51:00,55.2,53.8,29.83,SSW,202,0.0,0.0,95,0.00,,,0.00,WUHU21623XXSP,2013-09-21 12:51:00,
2013-09-21 05:56:00,55.2,53.8,29.82,SSW,202,0.0,0.0,95,0.00,,,0.00,WUHU21623XXSP,2013-09-21 12:56:00,
2013-09-21 06:01:00,55.2,53.8,29.81,SSW,202,0.0,0.0,95,0.00,,,0.00,WUHU21623XXSP,2013-09-21 13:01:00,
2013-09-21 06:06:00,55.2,53.8,29.82,SSW,202,0.0,0.0,95,0.00,,,0.00,WUHU21623XXSP,2013-09-21 13:06:00,
2013-09-21 06:11:00,55.2,53.8,29.81,SSW,202,0.0,0.0,95,0.00,,,0.00,WUHU21623XXSP,2013-09-21 13:11:00,
2013-09-21 06:16:00,55.0,53.6,29.81,SSW,202,0.0,0.0,95,0.00,,,0.00,WUHU21623XXSP,2013-09-21 13:16:00,
2013-09-21 06:21:00,55.2,53.8,29.81,SSW,202,0.0,0.0,95,0.00,,,0.00,WUHU21623XXSP,2013-09-21 13:21:00,
2013-09-21 06:26:00,55.2,53.8,29.81,SSW,202,0.0,0.0,95,0.00,,,0.00,WUHU21623XXSP,2013-09-21 13:26:00,
2013-09-21 06:31:00,55.2,53.8,29.81,SSW,202,0.0,0.0,95,0.00,,,0.00,WUHU21623XXSP,2013-09-21 13:31:00,
2013-09-21 06:36:00,55.2,53.8,29.81,SSW,202,0.0,0.0,95,0.00,,,0.00,WUHU21623XXSP,2013-09-21 13:36:00,
2013-09-21 06:41:00,55.4,54.0,29.81,SSW,202,0.0,0.0,95,0.00,,,0.00,WUHU21623XXSP,2013-09-21 13:41:00,
2013-09-21 06:46:00,55.4,54.0,29.81,SSW,202,0.0,0.0,95,0.00,,,0.00,WUHU21623XXSP,2013-09-21 13:46:00,
2013-09-21 06:51:00,55.6,54.1,29.82,SSW,202,0.0,0.0,95,0.00,,,0.00,WUHU21623XXSP,2013-09-21 13:51:00,
2013-09-21 06:56:00,55.6,54.1,29.81,SSW,202,0.0,0.0,95,0.00,,,0.00,WUHU21623XXSP,2013-09-21 13:56:00,
2013-09-21 07:01:00,55.8,54.3,29.82,SSW,202,0.0,0.0,95,0.00,,,0.00,WUHU21623XXSP,2013-09-21 14:01:00,
2013-09-21 07:06:00,55.9,54.5,29.81,SSW,202,0.0,0.0,95,0.00,,,0.00,WUHU21623XXSP,2013-09-21 14:06:00,
2013-09-21 07:11:00,55.8,54.3,29.81,SSW,202,0.0,0.0,95,0.00,,,0.00,WUHU21623XXSP,2013-09-21 14:11:00,
2013-09-21 07:16:00,55.9,54.5,29.82,SSW,202,0.0,0.0,95,0.00,,,0.00,WUHU21623XXSP,2013-09-21 14:16:00,
2013-09-21 07:21:00,55.9,54.5,29.82,SSW,202,0.0,0.0,95,0.00,,,0.00,WUHU21623XXSP,2013-09-21 14:21:00,
2013-09-21 07:26:00,55.9,54.5,29.82,SSW,202,0.0,0.0,95,0.00,,,0.00,WUHU21623XXSP,2013-09-21 14:26:00,
2013-09-21 07:31:00,55.9,54.5,29.82,SSW,202,0.0,0.0,95,0.00,,,0.00,WUHU21623XXSP,2013-09-21 14:31:00,
2013-09-21 07:36:00,55.9,54.5,29.82,SSW,202,0.0,0.0,95,0.00,,,0.00,WUHU21623XXSP,2013-09-21 14:36:00,
2013-09-21 07:41:00,55.9,54.5,29.82,SSW,202,0.0,0.0,95,0.00,,,0.00,WUHU21623XXSP,2013-09-21 14:41:00,
2013-09-21 07:46:00,55.9,54.5,29.83,SSW,202,0.0,0.0,95,0.00,,,0.00,WUHU21623XXSP,2013-09-21 14:46:00,
2013-09-21 07:51:00,56.1,54.7,29.83,SSW,202,0.0,0.0,95,0.00,,,0.00,WUHU21623XXSP,2013-09-21 14:51:00,
2013-09-21 07:56:00,56.1,54.7,29.83,SSW,202,0.0,0.0,95,0.00,,,0.00,WUHU21623XXSP,2013-09-21 14:56:00,
2013-09-21 08:01:00,56.1,54.7,29.83,SSW,202,0.0,0.0,95,0.00,,,0.00,WUHU21623XXSP,2013-09-21 15:01:00,
2013-09-21 08:06:00,56.1,54.7,29.83,SSW,202,0.0,0.0,95,0.00,,,0.00,WUHU21623XXSP,2013-09-21 15:06:00,
2013-09-21 08:11:00,56.3,54.9,29.83,SSW,202,0.0,0.0,95,0.00,,,0.00,WUHU21623XXSP,2013-09-21 15:11:00,
2013-09-21 08:16:00,56.3,54.9,29.82,SSW,202,0.0,0.0,95,0.00,,,0.00,WUHU21623XXSP,2013-09-21 15:16:00,
2013-09-21 08:21:00,56.3,54.9,29.83,SSW,202,0.0,0.0,95,0.00,,,0.00,WUHU21623XXSP,2013-09-21 15:21:00,
2013-09-21 08:26:00,56.5,55.0,29.83,SSW,202,0.0,0.0,95,0.00,,,0.00,WUHU21623XXSP,2013-09-21 15:26:00,
2013-09-21 08:31:00,56.5,55.0,29.83,SSW,202,0.0,0.0,95,0.00,,,0.00,WUHU21623XXSP,2013-09-21 15:31:00,
2013-09-21 08:36:00,56.5,55.0,29.83,SSW,202,0.0,0.0,95,0.00,,,0.00,WUHU21623XXSP,2013-09-21 15:36:00,
2013-09-21 08:41:00,56.5,55.0,29.83,SSW,202,0.0,0.0,95,0.00,,,0.00,WUHU21623XXSP,2013-09-21 15:41:00,
2013-09-21 08:46:00,56.7,55.2,29.82,SSW,202,0.0,0.0,95,0.00,,,0.00,WUHU21623XXSP,2013-09-21 15:46:00,
2013-09-21 08:51:00,56.5,55.0,29.83,SSW,202,0.0,0.0,95,0.00,,,0.00,WUHU21623XXSP,2013-09-21 15:51:00,
2013-09-21 08:56:00,56.8,55.4,29.83,SSW,202,0.0,0.0,95,0.00,,,0.00,WUHU21623XXSP,2013-09-21 15:56:00,
2013-09-21 09:01:00,56.8,55.4,29.82,SSW,202,0.0,0.0,95,0.00,,,0.00,WUHU21623XXSP,2013-09-21 16:01:00,
2013-09-21 09:06:00,57.0,55.4,29.83,SSW,202,0.0,0.0,95,0.00,,,0.00,WUHU21623XXSP,2013-09-21 16:06:00,
2013-09-21 09:11:00,57.0,55.6,29.83,SSW,202,0.0,0.0,95,0.00,,,0.00,WUHU21623XXSP,2013-09-21 16:11:00,
2013-09-21 09:16:00,57.0,55.6,29.83,SSW,202,0.0,0.0,95,0.00,,,0.00,WUHU21623XXSP,2013-09-21 16:16:00,
2013-09-21 09:21:00,57.2,55.8,29.83,SSW,202,0.0,0.0,95,0.00,,,0.00,WUHU21623XXSP,2013-09-21 16:21:00,
2013-09-21 09:26:00,57.4,55.9,29.83,SSW,202,0.0,0.0,95,0.00,,,0.00,WUHU21623XXSP,2013-09-21 16:26:00,
2013-09-21 09:31:00,57.4,55.9,29.83,SSW,202,0.0,0.0,95,0.00,,,0.00,WUHU21623XXSP,2013-09-21 16:31:00,
2013-09-21 09:36:00,57.6,56.1,29.83,SSW,202,0.0,0.0,95,0.00,,,0.00,WUHU21623XXSP,2013-09-21 16:36:00,
2013-09-21 09:41:00,57.7,56.3,29.83,SSW,202,0.0,0.0,95,0.00,,,0.00,WUHU21623XXSP,2013-09-21 16:41:00,
2013-09-21 09:46:00,57.9,56.5,29.83,SSW,202,0.0,0.0,95,0.00,,,0.00,WUHU21623XXSP,2013-09-21 16:46:00,
2013-09-21 09:51:00,58.1,56.7,29.84,SSW,202,0.0,0.0,95,0.00,,,0.00,WUHU21623XXSP,2013-09-21 16:51:00,
2013-09-21 09:56:00,58.3,56.8,29.84,SSW,202,0.0,0.0,95,0.00,,,0.00,WUHU21623XXSP,2013-09-21 16:56:00,
2013-09-21 10:01:00,58.3,56.8,29.85,SSW,202,0.0,0.0,95,0.00,,,0.00,WUHU21623XXSP,2013-09-21 17:01:00,
2013-09-21 10:06:00,58.5,57.0,29.85,SSW,202,0.0,0.0,95,0.00,,,0.00,WUHU21623XXSP,2013-09-21 17:06:00,
2013-09-21 10:11:00,58.6,57.2,29.86,SSW,202,0.0,0.0,95,0.00,,,0.00,WUHU21623XXSP,2013-09-21 17:11:00,
2013-09-21 10:16:00,58.6,57.2,29.85,SSW,202,0.0,0.0,95,0.00,,,0.00,WUHU21623XXSP,2013-09-21 17:16:00,
2013-09-21 10:21:00,58.8,57.4,29.85,SSW,202,0.0,0.0,95,0.00,,,0.00,WUHU21623XXSP,2013-09-21 17:21:00,
2013-09-21 10:26:00,58.8,57.4,29.85,SSW,202,0.0,0.0,95,0.00,,,0.00,WUHU21623XXSP,2013-09-21 17:26:00,
2013-09-21 10:31:00,58.8,57.4,29.86,SSW,202,0.0,0.0,95,0.00,,,0.00,WUHU21623XXSP,2013-09-21 17:31:00,
2013-09-21 10:36:00,58.8,57.4,29.86,SSW,202,0.0,0.0,95,0.00,,,0.00,WUHU21623XXSP,2013-09-21 17:36:00,
2013-09-21 10:41:00,59.0,57.6,29.86,SSW,202,0.0,0.0,95,0.00,,,0.00,WUHU21623XXSP,2013-09-21 17:41:00,
2013-09-21 10:46:00,59.2,57.6,29.87,SSW,202,0.0,0.0,95,0.00,,,0.00,WUHU21623XXSP,2013-09-21 17:46:00,
2013-09-21 10:51:00,59.4,57.7,29.86,SSW,202,0.0,0.0,95,0.00,,,0.00,WUHU21623XXSP,2013-09-21 17:51:00,
2013-09-21 10:56:00,59.5,58.1,29.87,SSW,202,0.0,0.0,95,0.00,,,0.00,WUHU21623XXSP,2013-09-21 17:56:00,
2013-09-21 11:01:00,59.5,58.1,29.86,SSW,202,0.0,0.0,95,0.00,,,0.00,WUHU21623XXSP,2013-09-21 18:01:00,
2013-09-21 11:06:00,59.7,58.1,29.86,SSW,202,0.0,0.0,95,0.00,,,0.00,WUHU21623XXSP,2013-09-21 18:06:00,
2013-09-21 11:11:00,59.9,58.5,29.86,SSW,202,0.0,0.0,95,0.00,,,0.00,WUHU21623XXSP,2013-09-21 18:11:00,
2013-09-21 11:16:00,59.9,58.5,29.87,SSW,202,0.0,0.0,95,0.00,,,0.00,WUHU21623XXSP,2013-09-21 18:16:00,
2013-09-21 11:21:00,60.4,58.7,29.87,SSW,202,0.0,0.0,94,0.00,,,0.00,WUHU21623XXSP,2013-09-21 18:21:00,
2013-09-21 11:26:00,60.6,58.9,29.87,SSW,202,0.0,0.0,94,0.00,,,0.00,WUHU21623XXSP,2013-09-21 18:26:00,
2013-09-21 11:31:00,60.6,58.9,29.87,SSW,202,0.0,0.0,94,0.00,,,0.00,WUHU21623XXSP,2013-09-21 18:31:00,
2013-09-21 11:36:00,61.0,59.0,29.87,SSW,202,0.0,0.0,93,0.00,,,0.00,WUHU21623XXSP,2013-09-21 18:36:00,
2013-09-21 11:41:00,61.0,59.0,29.88,SSW,202,0.0,0.0,93,0.00,,,0.00,WUHU21623XXSP,2013-09-21 18:41:00,
2013-09-21 11:46:00,61.3,59.0,29.88,SSW,202,0.0,2.5,92,0.00,,,0.00,WUHU21623XXSP,2013-09-21 18:46:00,
2013-09-21 11:51:00,61.5,58.9,29.88,SSW,202,0.0,2.5,91,0.00,,,0.00,WUHU21623XXSP,2013-09-21 18:51:00,
2013-09-21 11:56:00,61.7,59.1,29.88,SSW,202,0.0,0.0,90,0.00,,,0.00,WUHU21623XXSP,2013-09-21 18:56:00,
2013-09-21 12:01:00,61.9,59.0,29.88,SSW,202,0.0,0.0,90,0.00,,,0.00,WUHU21623XXSP,2013-09-21 19:01:00,
2013-09-21 12:06:00,62.1,58.8,29.88,SW,225,0.0,0.0,88,0.00,,,0.00,WUHU21623XXSP,2013-09-21 19:06:00,
2013-09-21 12:11:00,62.2,58.7,29.88,SSW,202,0.9,1.6,88,0.00,,,0.00,WUHU21623XXSP,2013-09-21 19:11:00,
2013-09-21 12:16:00,62.1,58.2,29.88,SW,225,1.3,1.6,87,0.00,,,0.00,WUHU21623XXSP,2013-09-21 19:16:00,
2013-09-21 12:21:00,61.9,58.0,29.89,SSW,202,0.0,1.8,87,0.00,,,0.00,WUHU21623XXSP,2013-09-21 19:21:00,
2013-09-21 12:26:00,61.9,58.0,29.89,SW,225,0.0,1.8,87,0.00,,,0.00,WUHU21623XXSP,2013-09-21 19:26:00,
2013-09-21 12:31:00,62.1,58.2,29.89,SW,225,0.0,1.8,87,0.00,,,0.00,WUHU21623XXSP,2013-09-21 19:31:00,
2013-09-21 12:36:00,62.4,58.5,29.89,SSW,202,0.0,0.0,87,0.00,,,0.00,WUHU21623XXSP,2013-09-21 19:36:00,
2013-09-21 12:41:00,62.4,58.5,29.89,SSW,202,0.0,0.9,87,0.00,,,0.00,WUHU21623XXSP,2013-09-21 19:41:00,
2013-09-21 12:46:00,62.4,58.2,29.90,SW,225,0.0,0.9,86,0.00,,,0.00,WUHU21623XXSP,2013-09-21 19:46:00,
2013-09-21 12:51:00,62.4,57.8,29.90,SW,225,0.0,1.6,85,0.00,,,0.00,WUHU21623XXSP,2013-09-21 19:51:00,
2013-09-21 12:56:00,62.6,57.8,29.90,SW,225,0.0,1.6,85,0.00,,,0.00,WUHU21623XXSP,2013-09-21 19:56:00,
2013-09-21 13:01:00,62.6,57.8,29.90,WSW,247,0.0,0.0,85,0.00,,,0.00,WUHU21623XXSP,2013-09-21 20:01:00,
2013-09-21 13:06:00,62.4,57.8,29.90,SSW,202,0.0,0.0,85,0.00,,,0.00,WUHU21623XXSP,2013-09-21 20:06:00,
2013-09-21 13:11:00,62.4,57.8,29.90,SSW,202,0.0,0.0,85,0.00,,,0.00,WUHU21623XXSP,2013-09-21 20:11:00,
2013-09-21 13:16:00,62.4,57.8,29.91,SSW,202,0.0,0.0,85,0.00,,,0.00,WUHU21623XXSP,2013-09-21 20:16:00,
2013-09-21 13:21:00,62.4,57.8,29.91,SSW,202,0.7,0.7,85,0.00,,,0.00,WUHU21623XXSP,2013-09-21 20:21:00,
2013-09-21 13:26:00,62.4,57.8,29.90,SSW,202,0.0,0.7,85,0.00,,,0.00,WUHU21623XXSP,2013-09-21 20:26:00,
2013-09-21 13:31:00,62.2,57.7,29.90,SSW,202,0.7,0.7,85,0.00,,,0.00,WUHU21623XXSP,2013-09-21 20:31:00,
2013-09-21 13:36:00,61.9,57.3,29.90,SW,225,0.0,2.0,85,0.00,,,0.00,WUHU21623XXSP,2013-09-21 20:36:00,
2013-09-21 13:41:00,61.9,57.7,29.90,SW,225,0.0,2.0,86,0.00,,,0.00,WUHU21623XXSP,2013-09-21 20:41:00,
2013-09-21 13:46:00,62.1,57.8,29.90,SW,225,0.0,1.1,86,0.00,,,0.00,WUHU21623XXSP,2013-09-21 20:46:00,
2013-09-21 13:51:00,62.1,57.7,29.90,SW,225,0.9,1.1,86,0.00,,,0.00,WUHU21623XXSP,2013-09-21 20:51:00,
2013-09-21 13:56:00,62.1,57.8,29.91,SW,225,1.1,1.1,86,0.00,,,0.00,WUHU21623XXSP,2013-09-21 20:56:00,
2013-09-21 14:01:00,62.2,57.7,29.90,SSW,202,0.0,1.1,85,0.00,,,0.00,WUHU21623XXSP,2013-09-21 21:01:00,
2013-09-21 14:06:00,62.4,57.8,29.90,South,180,0.0,0.9,85,0.00,,,0.00,WUHU21623XXSP,2013-09-21 21:06:00,
2013-09-21 14:11:00,62.4,57.8,29.90,South,180,0.0,0.9,85,0.00,,,0.00,WUHU21623XXSP,2013-09-21 21:11:00,
2013-09-21 14:16:00,62.4,57.8,29.90,South,180,0.0,0.0,85,0.00,,,0.00,WUHU21623XXSP,2013-09-21 21:16:00,
2013-09-21 14:21:00,63.1,58.2,29.90,South,180,0.0,0.0,86,0.00,,,0.00,WUHU21623XXSP,2013-09-21 21:21:00,
2013-09-21 14:26:00,64.6,60.0,29.90,SSW,202,0.9,0.9,85,0.00,,,0.00,WUHU21623XXSP,2013-09-21 21:26:00,
2013-09-21 14:31:00,65.1,59.8,29.91,SSW,202,0.0,0.9,83,0.00,,,0.00,WUHU21623XXSP,2013-09-21 21:31:00,
2013-09-21 14:36:00,65.3,59.7,29.91,SSW,202,2.2,2.2,82,0.00,,,0.00,WUHU21623XXSP,2013-09-21 21:36:00,
2013-09-21 14:41:00,64.9,59.3,29.91,SSW,202,0.0,2.2,82,0.00,,,0.00,WUHU21623XXSP,2013-09-21 21:41:00,
2013-09-21 14:46:00,65.1,59.5,29.91,SW,225,0.0,0.0,82,0.00,,,0.00,WUHU21623XXSP,2013-09-21 21:46:00,
2013-09-21 14:51:00,65.3,59.3,29.91,South,180,0.0,6.0,81,0.00,,,0.00,WUHU21623XXSP,2013-09-21 21:51:00,
2013-09-21 14:56:00,65.3,59.0,29.91,South,180,0.0,6.0,80,0.00,,,0.00,WUHU21623XXSP,2013-09-21 21:56:00,
2013-09-21 15:01:00,65.5,59.5,29.91,SSW,202,1.1,1.1,81,0.00,,,0.00,WUHU21623XXSP,2013-09-21 22:01:00,
2013-09-21 15:06:00,65.8,59.4,29.91,SSW,202,0.0,1.1,79,0.00,,,0.00,WUHU21623XXSP,2013-09-21 22:06:00,
2013-09-21 15:11:00,65.5,58.8,29.91,South,180,0.0,0.9,79,0.00,,,0.00,WUHU21623XXSP,2013-09-21 22:11:00,
2013-09-21 15:16:00,65.1,58.6,29.91,SSW,202,0.0,0.0,79,0.00,,,0.00,WUHU21623XXSP,2013-09-21 22:16:00,
2013-09-21 15:21:00,64.8,58.5,29.92,SW,225,0.0,0.9,80,0.00,,,0.00,WUHU21623XXSP,2013-09-21 22:21:00,
2013-09-21 15:26:00,64.6,58.3,29.91,SW,225,0.0,0.9,80,0.00,,,0.00,WUHU21623XXSP,2013-09-21 22:26:00,
2013-09-21 15:31:00,64.4,58.4,29.91,SW,225,0.0,1.6,81,0.00,,,0.00,WUHU21623XXSP,2013-09-21 22:31:00,
2013-09-21 15:36:00,64.2,58.3,29.91,SW,225,2.2,2.2,81,0.00,,,0.00,WUHU21623XXSP,2013-09-21 22:36:00,
2013-09-21 15:41:00,64.2,58.3,29.92,SSW,202,0.0,2.2,81,0.00,,,0.00,WUHU21623XXSP,2013-09-21 22:41:00,
2013-09-21 15:46:00,64.2,57.9,29.91,South,180,0.0,1.1,80,0.00,,,0.00,WUHU21623XXSP,2013-09-21 22:46:00,
2013-09-21 15:51:00,63.7,57.4,29.91,SSW,202,0.0,1.6,80,0.00,,,0.00,WUHU21623XXSP,2013-09-21 22:51:00,
2013-09-21 15:56:00,63.5,57.2,29.91,SSW,202,0.9,1.6,81,0.00,,,0.00,WUHU21623XXSP,2013-09-21 22:56:00,
2013-09-21 16:01:00,63.3,57.4,29.91,SW,225,0.0,0.9,81,0.00,,,0.00,WUHU21623XXSP,2013-09-21 23:01:00,
2013-09-21 16:06:00,63.0,57.3,29.92,SW,225,2.0,2.0,82,0.00,,,0.00,WUHU21623XXSP,2013-09-21 23:06:00,
2013-09-21 16:11:00,62.8,57.2,29.92,SW,225,0.0,2.0,82,0.00,,,0.00,WUHU21623XXSP,2013-09-21 23:11:00,
2013-09-21 16:16:00,62.8,57.2,29.91,SW,225,0.0,2.0,82,0.00,,,0.00,WUHU21623XXSP,2013-09-21 23:16:00,
2013-09-21 16:21:00,62.8,57.2,29.92,WSW,247,0.0,0.0,82,0.00,,,0.00,WUHU21623XXSP,2013-09-21 23:21:00,
2013-09-21 16:26:00,62.8,57.2,29.91,WSW,247,0.0,0.0,82,0.00,,,0.00,WUHU21623XXSP,2013-09-21 23:26:00,
2013-09-21 16:31:00,62.8,57.3,29.91,SSW,202,1.1,1.1,82,0.00,,,0.00,WUHU21623XXSP,2013-09-21 23:31:00,
2013-09-21 16:36:00,63.0,57.2,29.91,SSW,202,1.8,1.8,82,0.00,,,0.00,WUHU21623XXSP,2013-09-21 23:36:00,
2013-09-21 16:41:00,63.0,57.3,29.91,SSW,202,0.0,1.8,82,0.00,,,0.00,WUHU21623XXSP,2013-09-21 23:41:00,
2013-09-21 16:46:00,63.1,57.5,29.91,SSW,202,1.3,1.8,82,0.00,,,0.00,WUHU21623XXSP,2013-09-21 23:46:00,
2013-09-21 16:51:00,63.0,57.3,29.90,SW,225,0.0,1.3,82,0.00,,,0.00,WUHU21623XXSP,2013-09-21 23:51:00,
2013-09-21 16:56:00,62.8,57.3,29.90,SW,225,0.0,0.9,82,0.00,,,0.00,WUHU21623XXSP,2013-09-21 23:56:00,
2013-09-21 17:01:00,62.8,57.2,29.90,SW,225,0.0,0.0,82,0.00,,,0.00,WUHU21623XXSP,2013-09-22 00:01:00,
2013-09-21 17:06:00,62.4,57.1,29.90,SW,225,1.8,1.8,83,0.00,,,0.00,WUHU21623XXSP,2013-09-22 00:06:00,
2013-09-21 17:11:00,62.2,57.0,29.90,SW,225,0.0,1.8,83,0.00,,,0.00,WUHU21623XXSP,2013-09-22 00:11:00,
2013-09-21 17:16:00,62.1,57.0,29.90,SW,225,0.0,1.8,83,0.00,,,0.00,WUHU21623XXSP,2013-09-22 00:16:00,
2013-09-21 17:21:00,61.9,56.6,29.89,SW,225,0.0,0.0,83,0.00,,,0.00,WUHU21623XXSP,2013-09-22 00:21:00,
2013-09-21 17:26:00,61.7,56.6,29.89,SW,225,0.0,0.0,83,0.00,,,0.00,WUHU21623XXSP,2013-09-22 00:26:00,
2013-09-21 17:31:00,61.7,56.8,29.90,SW,225,2.2,2.2,84,0.00,,,0.00,WUHU21623XXSP,2013-09-22 00:31:00,
2013-09-21 17:36:00,61.7,56.8,29.91,SW,225,2.2,2.2,84,0.00,,,0.00,WUHU21623XXSP,2013-09-22 00:36:00,
2013-09-21 17:41:00,61.7,56.8,29.91,SW,225,0.0,2.2,84,0.00,,,0.00,WUHU21623XXSP,2013-09-22 00:41:00,
2013-09-21 17:46:00,61.5,56.6,29.91,SW,225,0.0,2.0,84,0.00,,,0.00,WUHU21623XXSP,2013-09-22 00:46:00,
2013-09-21 17:51:00,61.3,56.8,29.92,SW,225,0.9,0.9,85,0.00,,,0.00,WUHU21623XXSP,2013-09-22 00:51:00,
2013-09-21 17:56:00,61.2,56.6,29.91,SW,225,1.1,1.6,85,0.00,,,0.00,WUHU21623XXSP,2013-09-22 00:56:00,
2013-09-21 18:01:00,61.2,56.6,29.91,SW,225,1.1,1.6,85,0.00,,,0.00,WUHU21623XXSP,2013-09-22 01:01:00,
2013-09-21 18:06:00,61.0,56.5,29.92,SSW,202,0.0,1.3,85,0.00,,,0.00,WUHU21623XXSP,2013-09-22 01:06:00,
2013-09-21 18:11:00,61.0,56.5,29.92,SSW,202,1.6,1.6,85,0.00,,,0.00,WUHU21623XXSP,2013-09-22 01:11:00,
2013-09-21 18:16:00,60.6,56.1,29.92,SSW,202,0.0,1.6,85,0.00,,,0.00,WUHU21623XXSP,2013-09-22 01:16:00,
2013-09-21 18:21:00,60.6,56.1,29.92,SW,225,0.0,0.0,85,0.00,,,0.00,WUHU21623XXSP,2013-09-22 01:21:00,
2013-09-21 18:26:00,60.6,56.4,29.93,SW,225,0.0,0.0,86,0.00,,,0.00,WUHU21623XXSP,2013-09-22 01:26:00,
2013-09-21 18:31:00,60.4,56.3,29.92,SW,225,0.0,0.0,86,0.00,,,0.00,WUHU21623XXSP,2013-09-22 01:31:00,
2013-09-21 18:36:00,60.3,56.1,29.92,SW,225,0.0,0.0,86,0.00,,,0.00,WUHU21623XXSP,2013-09-22 01:36:00,
2013-09-21 18:41:00,60.1,56.2,29.92,SW,225,0.0,0.0,87,0.00,,,0.00,WUHU21623XXSP,2013-09-22 01:41:00,
2013-09-21 18:46:00,60.1,56.2,29.92,SW,225,0.0,0.0,87,0.00,,,0.00,WUHU21623XXSP,2013-09-22 01:46:00,
2013-09-21 18:51:00,59.9,56.0,29.92,SW,225,0.0,0.0,87,0.00,,,0.00,WUHU21623XXSP,2013-09-22 01:51:00,
2013-09-21 18:56:00,59.7,55.9,29.92,SW,225,0.0,0.0,87,0.00,,,0.00,WUHU21623XXSP,2013-09-22 01:56:00,
2013-09-21 19:01:00,59.5,55.7,29.92,SW,225,0.0,0.0,87,0.00,,,0.00,WUHU21623XXSP,2013-09-22 02:01:00,
2013-09-21 19:06:00,59.4,55.7,29.92,SW,225,0.0,0.0,87,0.00,,,0.00,WUHU21623XXSP,2013-09-22 02:06:00,
2013-09-21 19:11:00,59.2,55.5,29.92,SW,225,0.0,0.0,87,0.00,,,0.00,WUHU21623XXSP,2013-09-22 02:11:00,
2013-09-21 19:16:00,59.2,55.7,29.92,SW,225,0.0,0.0,88,0.00,,,0.00,WUHU21623XXSP,2013-09-22 02:16:00,
2013-09-21 19:21:00,58.8,55.5,29.92,SW,225,0.0,0.0,88,0.00,,,0.00,WUHU21623XXSP,2013-09-22 02:21:00,
2013-09-21 19:26:00,58.8,55.3,29.92,SW,225,0.0,0.0,88,0.00,,,0.00,WUHU21623XXSP,2013-09-22 02:26:00,
2013-09-21 19:31:00,58.8,55.3,29.92,SW,225,0.0,0.0,88,0.00,,,0.00,WUHU21623XXSP,2013-09-22 02:31:00,
2013-09-21 19:36:00,58.8,55.6,29.92,SW,225,0.0,0.0,89,0.00,,,0.00,WUHU21623XXSP,2013-09-22 02:36:00,
2013-09-21 19:41:00,58.8,55.6,29.92,SW,225,0.0,0.0,89,0.00,,,0.00,WUHU21623XXSP,2013-09-22 02:41:00,
2013-09-21 19:46:00,58.8,55.6,29.92,SW,225,0.0,0.0,89,0.00,,,0.00,WUHU21623XXSP,2013-09-22 02:46:00,
2013-09-21 19:51:00,58.6,55.4,29.92,SW,225,0.0,0.0,89,0.00,,,0.00,WUHU21623XXSP,2013-09-22 02:51:00,
2013-09-21 19:56:00,58.6,55.4,29.92,SW,225,0.0,0.0,89,0.00,,,0.00,WUHU21623XXSP,2013-09-22 02:56:00,
2013-09-21 20:01:00,58.6,55.4,29.92,SW,225,0.0,0.0,89,0.00,,,0.00,WUHU21623XXSP,2013-09-22 03:01:00,
2013-09-21 20:06:00,58.5,55.3,29.93,SW,225,0.0,0.0,89,0.00,,,0.00,WUHU21623XXSP,2013-09-22 03:06:00,
2013-09-21 20:11:00,58.3,55.1,29.92,SW,225,0.0,0.0,89,0.00,,,0.00,WUHU21623XXSP,2013-09-22 03:11:00,
2013-09-21 20:16:00,58.3,55.1,29.93,SW,225,0.0,0.0,89,0.00,,,0.00,WUHU21623XXSP,2013-09-22 03:16:00,
2013-09-21 20:21:00,58.1,54.9,29.93,SW,225,0.0,0.0,89,0.00,,,0.00,WUHU21623XXSP,2013-09-22 03:21:00,
2013-09-21 20:26:00,58.1,55.2,29.93,SW,225,0.0,0.0,90,0.00,,,0.00,WUHU21623XXSP,2013-09-22 03:26:00,
2013-09-21 20:31:00,58.1,55.2,29.93,SW,225,0.0,0.0,90,0.00,,,0.00,WUHU21623XXSP,2013-09-22 03:31:00,
2013-09-21 20:36:00,57.9,55.0,29.93,SW,225,0.0,0.0,90,0.00,,,0.00,WUHU21623XXSP,2013-09-22 03:36:00,
2013-09-21 20:41:00,57.9,55.0,29.93,SW,225,0.0,0.0,90,0.00,,,0.00,WUHU21623XXSP,2013-09-22 03:41:00,
2013-09-21 20:46:00,57.9,55.0,29.93,SW,225,0.0,0.0,90,0.00,,,0.00,WUHU21623XXSP,2013-09-22 03:46:00,
2013-09-21 20:51:00,57.9,55.0,29.93,SW,225,0.0,0.0,90,0.00,,,0.00,WUHU21623XXSP,2013-09-22 03:51:00,
2013-09-21 20:56:00,57.7,54.9,29.93,SW,225,0.0,0.0,90,0.00,,,0.00,WUHU21623XXSP,2013-09-22 03:56:00,
2013-09-21 21:01:00,57.7,54.9,29.93,SW,225,0.0,0.0,90,0.00,,,0.00,WUHU21623XXSP,2013-09-22 04:01:00,
2013-09-21 21:06:00,57.7,54.9,29.93,SW,225,0.0,0.0,90,0.00,,,0.00,WUHU21623XXSP,2013-09-22 04:06:00,
2013-09-21 21:11:00,57.7,54.9,29.93,SW,225,0.0,0.0,91,0.00,,,0.00,WUHU21623XXSP,2013-09-22 04:11:00,
2013-09-21 21:16:00,57.7,55.1,29.93,SW,225,0.0,0.0,91,0.00,,,0.00,WUHU21623XXSP,2013-09-22 04:16:00,
2013-09-21 21:21:00,57.7,55.1,29.93,SW,225,0.0,0.0,91,0.00,,,0.00,WUHU21623XXSP,2013-09-22 04:21:00,
2013-09-21 21:26:00,57.7,55.1,29.93,SW,225,0.0,0.0,91,0.00,,,0.00,WUHU21623XXSP,2013-09-22 04:26:00,
2013-09-21 21:31:00,57.7,55.1,29.93,SW,225,0.0,0.0,91,0.00,,,0.00,WUHU21623XXSP,2013-09-22 04:31:00,
2013-09-21 21:36:00,57.7,55.1,29.93,SW,225,0.0,0.0,91,0.00,,,0.00,WUHU21623XXSP,2013-09-22 04:36:00,
2013-09-21 21:41:00,57.7,55.1,29.93,SW,225,0.0,0.0,91,0.00,,,0.00,WUHU21623XXSP,2013-09-22 04:41:00,
2013-09-21 21:46:00,57.7,55.1,29.93,SW,225,0.0,0.0,91,0.00,,,0.00,WUHU21623XXSP,2013-09-22 04:46:00,
2013-09-21 21:51:00,57.7,55.1,29.93,SW,225,0.0,0.0,91,0.00,,,0.00,WUHU21623XXSP,2013-09-22 04:51:00,
2013-09-21 21:56:00,57.6,55.0,29.93,SW,225,0.0,0.0,91,0.00,,,0.00,WUHU21623XXSP,2013-09-22 04:56:00,
2013-09-21 22:01:00,57.6,55.0,29.93,SW,225,0.0,0.0,91,0.00,,,0.00,WUHU21623XXSP,2013-09-22 05:01:00,
2013-09-21 22:06:00,57.6,55.0,29.93,SW,225,0.0,0.0,91,0.00,,,0.00,WUHU21623XXSP,2013-09-22 05:06:00,
2013-09-21 22:11:00,57.6,55.0,29.93,SW,225,0.0,0.0,91,0.00,,,0.00,WUHU21623XXSP,2013-09-22 05:11:00,
2013-09-21 22:16:00,57.7,55.1,29.93,SW,225,0.0,0.0,91,0.00,,,0.00,WUHU21623XXSP,2013-09-22 05:16:00,
2013-09-21 22:21:00,57.7,55.1,29.94,SW,225,0.0,0.0,91,0.00,,,0.00,WUHU21623XXSP,2013-09-22 05:21:00,
2013-09-21 22:26:00,57.7,55.1,29.94,SW,225,0.0,0.0,91,0.00,,,0.00,WUHU21623XXSP,2013-09-22 05:26:00,
2013-09-21 22:31:00,57.7,55.1,29.94,SW,225,0.0,0.0,91,0.00,,,0.00,WUHU21623XXSP,2013-09-22 05:31:00,
2013-09-21 22:36:00,57.6,55.0,29.94,SW,225,0.0,0.0,91,0.00,,,0.00,WUHU21623XXSP,2013-09-22 05:36:00,
2013-09-21 22:41:00,57.6,55.1,29.94,SW,225,0.0,0.0,91,0.00,,,0.00,WUHU21623XXSP,2013-09-22 05:41:00,
2013-09-21 22:46:00,57.6,55.0,29.95,SW,225,0.0,0.9,91,0.00,,,0.00,WUHU21623XXSP,2013-09-22 05:46:00,
2013-09-21 22:51:00,57.6,55.0,29.94,SW,225,0.0,0.9,91,0.00,,,0.00,WUHU21623XXSP,2013-09-22 05:51:00,
2013-09-21 22:56:00,57.6,55.0,29.95,SW,225,0.0,0.0,91,0.00,,,0.00,WUHU21623XXSP,2013-09-22 05:56:00,
2013-09-21 23:01:00,57.6,55.0,29.94,SW,225,0.0,0.0,91,0.00,,,0.00,WUHU21623XXSP,2013-09-22 06:01:00,
2013-09-21 23:06:00,57.6,55.0,29.94,SW,225,0.0,0.0,91,0.00,,,0.00,WUHU21623XXSP,2013-09-22 06:06:00,
2013-09-21 23:11:00,57.6,55.0,29.94,SW,225,0.0,0.0,91,0.00,,,0.00,WUHU21623XXSP,2013-09-22 06:11:00,
2013-09-21 23:16:00,57.6,55.0,29.94,SW,225,0.0,0.0,91,0.00,,,0.00,WUHU21623XXSP,2013-09-22 06:16:00,
2013-09-21 23:21:00,57.6,55.0,29.93,SW,225,0.9,0.9,91,0.00,,,0.00,WUHU21623XXSP,2013-09-22 06:21:00,
2013-09-21 23:26:00,57.6,55.0,29.93,SW,225,1.1,1.1,91,0.00,,,0.00,WUHU21623XXSP,2013-09-22 06:26:00,
2013-09-21 23:31:00,57.6,55.3,29.93,SW,225,0.7,1.1,92,0.00,,,0.00,WUHU21623XXSP,2013-09-22 06:31:00,
2013-09-21 23:36:00,57.6,55.3,29.93,SW,225,0.0,0.7,92,0.00,,,0.00,WUHU21623XXSP,2013-09-22 06:36:00,
2013-09-21 23:41:00,57.6,55.3,29.94,SW,225,0.0,0.7,92,0.00,,,0.00,WUHU21623XXSP,2013-09-22 06:41:00,
2013-09-21 23:46:00,57.6,55.3,29.94,SW,225,0.0,0.0,92,0.00,,,0.00,WUHU21623XXSP,2013-09-22 06:46:00,
2013-09-21 23:51:00,57.4,55.1,29.94,SW,225,0.0,0.0,92,0.00,,,0.00,WUHU21623XXSP,2013-09-22 06:51:00,
2013-09-21 23:56:00,57.4,55.1,29.94,SW,225,0.0,0.0,92,0.00,,,0.00,WUHU21623XXSP,2013-09-22 06:56:00,